Погода в Красногорском

Россия / Челябинская область     54°36′20″N   61°13′45″E
темп.,
°C
ветер,
м/с
пор.,
м/с
влажн.,
%
обл.,
%
осадки,
мм/ч
давл.,
гПа
погр.,
м
21 января, пт
пт2123:00−18ююз369217 0.0 102559
02:00−21ююз34965 0.0 102543
05:00−25юз2210017 0.0 102612
08:00−25сз1110072 0.0 10269
11:00−20сз1110092 0.0 102626
14:00−13юв11895 0.0 102646
17:00−19ю11975 0.0 10279
20:00−22юз119915 0.0 10289
22 января, сб
сб2223:00−21ююз1198100 0.0 102910
02:00−21юз1197100 0.0 10309
05:00−23ю1199100 0.0 10309
08:00−24ююз1110060 0.0 10319
11:00−20ю22965 0.0 103141
14:00−14ю238583 0.0 103192
17:00−18ю2293100 0.0 103211
20:00−21ююз1195100 0.0 10349
23 января, вс
вс2323:00−23юз119672 0.0 10359
02:00−24ююз119663 0.0 10369
05:00−24зсз229636 0.0 10369
08:00−24ююз119487 0.0 10379
11:00−19юз119270 0.0 103825
14:00−13ю118596 0.0 103854
17:00−18всв009439 0.0 10399
20:00−21зюз009921 0.0 10419
24 января, пн
пн2423:00−23вюв1110026 0.0 10429
02:00−24з1110061 0.0 10429
05:00−23юз00100100 0.0 10439
08:00−23ююв229984 0.0 104314
11:00−18ю239229 0.0 104367
14:00−14ююз3587100 0.0 1042133
17:00−15ю3686100 0.0 104180
20:00−14ююз3785100 0.0 1041110
25 января, вт
вт2523:00−13ююз3885100 0.0 1039140
02:00−13ююз3886100 0.0 1038116
05:00−13ююз3685100 0.0 103786
08:00−15з1191100 0.0 103610
11:00−12ссз1183100 0.0 103532
14:00−8зсз1180100 0.0 103375
17:00−10юз2291100 0.0 103312
20:00−11зюз2290100 0.0 103230